Regional Weather Roundup
Issued by NWS Wakefield, VA

Home | Current Version | Previous Version | Text Only | Print | Product List | Glossary On
Versions: 1 2 3 4 5 6 7 8 9 10 11 12 13 14 15 16 17 18 19 20 21 22 23 24 25 26 27 28 29 30 31 32 33 34 35 36 37 38 39 40 41 42 43 44 45 46 47 48 49 50
000
ASUS41 KAKQ 271015
RWRAKQ

REGIONAL WEATHER ROUNDUP
NATIONAL WEATHER SERVICE WAKEFIELD VA
600 AM EDT WED MAY 27 2015

Note: "fair" indicates few or no clouds below 12,000 feet with no
significant weather and/or obstructions to visibility. * = Denotes
station may not report precipitation (e.g., rain,snow,etc.),
thunder or fog.

VAZ042-051-052>054-056-271100-
NORTHERN VIRGINIA

CITY           SKY/WX    TMP DP  RH WIND       PRES   REMARKS
WASH NATIONAL  MOCLDY    76  69  79 S12       30.15R
DULLES         PTCLDY    71  67  87 S8        30.13S
FORT BELVOIR   CLOUDY    74  69  84 S6        30.15R
QUANTICO       CLOUDY    74  69  85 S9        30.16R
FREDERICKSBRG* MOCLDY    73  71  93 S5        30.15R
STAFFORD*      CLOUDY    72  67  84 S6        30.19R
WARRENTON      PTCLDY    73  70  92 S5        30.14R
CULPEPER*      CLOUDY    71  68  90 S5        30.15R
MANASSAS*      CLEAR     73  70  88 S8        30.14R
LEESBURG*      CLEAR     70  70 100 S6        30.14S
WINCHESTER     HAZE      64  61  88 CALM      30.13R VSB 1
FRONT ROYAL*   FAIR      64  64 100 CALM      30.12R
LURAY*         PTSUNNY   70  70 100 S5        30.14R
$$

VAZ048-049-060>072-079>083-271100-
CENTRAL AND SOUTH CENTRAL VIRGINIA

CITY           SKY/WX    TMP DP  RH WIND       PRES   REMARKS
RICHMOND       MOCLDY    72  68  87 S8        30.18R
CHESTERFIELD*  NOT AVBL
PETERSBURG*    MOCLDY    71  71 100 CALM      30.19R
HANOVER        MOCLDY    72  68  87 S8        30.19R
TAPPAHANNOCK*  PTCLDY    71  65  82 S6        30.19R
QUINTON*       CLOUDY    71  68  90 S5        30.18S
CHARLOTTSVILLE MOCLDY    71  68  90 S8        30.15R
GORDONSVILLE*  CLOUDY    71  68  92 S6        30.15R
ORANGE*        CLOUDY    72  70  94 SE7       30.16S
LOUISA*        PTCLDY    70  68  94 S5        30.15S
BUMPASS*       FAIR      69  67  94 MISG      30.16R
FARMVILLE*     MOCLDY    71  70  98 S6        30.16R
CREWE*         FAIR      70  68  94 S5        30.18R
FORT PICKETT*  FAIR      70  68  94 S8        30.18S
CHASE CITY*    FAIR      72  71  98 CALM      30.19R
CLARKSVILLE*   FAIR      70  68  94 S6        30.18S
SOUTH HILL*    MOCLDY    69  67  95 S5        30.25R
LAWRENCEVILLE* FAIR      70  68  94 S6        30.20R
EMPORIA*         N/A     70  68  94 CALM      30.22R
$$

VAZ088>098-271100-
SOUTHEAST VIRGINIA

CITY           SKY/WX    TMP DP  RH WIND       PRES   REMARKS
NORFOLK        PTCLDY    72  65  78 S10       30.21S
VIRGINIA BEACH MOCLDY    72  66  81 S6        30.22R
NORFOLK NAVAL  MOCLDY    76  66  71 S15G21    30.23R
WEST POINT*    CLOUDY    74  68  79 S7        30.21R
SALUDA*        PTSUNNY   71  67  89 S7G20     30.19R
NEWPORT NEWS   PTCLDY    75  67  76 S13       30.21R
LANGLEY AFB    PTCLDY    71  67  86 S15       30.20R
FORT EUSTIS    MOCLDY    72  72 100 S9        30.19R
WILLIAMSBURG*  MOCLDY    73  70  88 S8        30.21R
HR EXEC AP*    FAIR      70  64  83 S7        30.24R
FRANKLIN*      MOCLDY    69  66  92 S8        30.22S
WAKEFIELD      MOCLDY    71  67  87 VRB7      30.20R
$$

VAZ020-022-025-037-045-271100-
WEST CENTRAL AND SOUTHWEST VIRGINIA

CITY           SKY/WX    TMP DP  RH WIND       PRES   REMARKS
STAUNTON*      MOCLDY    62  61  96 CALM      30.18R FOG
WAYNESBORO*    FAIR      65  64  97 CALM      30.16R
HOT SPRINGS VA PTCLDY    64  57  80 SW10      30.24R
LYNCHBURG      PTCLDY    67  66  97 S8        30.18R
DANVILLE       PTCLDY    68  63  84 SW3       30.19R
SOUTH BOSTON*  FAIR      68  64  85 CALM      30.19R
MARTINSVILLE   PTCLDY    65  65 100 CALM      30.22R
ROANOKE        PTCLDY    67  64  90 N3        30.19R
BLACKSBURG     CLOUDY    63  61  96 CALM      30.24R
DUBLIN*        CLOUDY    64  64 100 SW3       30.23R
MARION*        CLOUDY    64  61  91 W6        30.27R
HILLSVILLE*    MOCLDY    61  60  96 CALM      30.24R
RICHLANDS*     FAIR      64  61  90 SW6       30.24R
WISE*          MOCLDY    63  61  94 SW7       30.24R
ABINGDON*      CLOUDY    65  65 100 W3        30.23R
$$

MDZ021>025-VAZ099-100-271100-
SOUTHERN MARYLAND AND THE DELMARVA PENINSULA

CITY           SKY/WX    TMP DP  RH WIND       PRES   REMARKS
PATUXENT RIVER MOCLDY    71  67  87 S7        30.17R
BAY BRIDGE APT   N/A    N/A N/A N/A S6        30.16R
LEONARDTOWN    CLEAR     70  64  83 CALM      30.19
DOVER          PTCLDY    70  70 100 S10       30.14S
GEORGETOWN     PTCLDY    69  67  93 S8        30.20R
EASTON         CLEAR     72  72 100 S6        30.21S
CAMBRIDGE      CLEAR     72  68  88 S6        30.18R
SALISBURY      PTCLDY    70  67  90 S8        30.20S
OCEAN CITY     PTCLDY    66  63  90 S8        30.21S
WALLOPS ISLAND CLEAR     66  65  96 S10       30.22S
ACCOMACK*      CLEAR     68  68 100 S7        30.21S
$$

NCZ012>017-030>032-271100-
NORTH CENTRAL AND EASTERN NORTH CAROLINA

CITY           SKY/WX    TMP DP  RH WIND       PRES   REMARKS
ROANOKE RAPIDS FAIR      70  68  94 S5        30.21R
RALEIGH        MOCLDY    71  68  90 S5        30.21R
ELIZABETH CITY CLOUDY    71  66  84 S9        30.24S
AHOSKIE*       MOCLDY    68  66  94 S6        30.23R
EDENTON*       CLOUDY    71  67  85 S8        30.24R
CURRITUCK*     CLOUDY    72  64  75 S5        30.24S
KILL DEVIL HLS MOCLDY    72  65  79 S5        30.25S
MANTEO         CLOUDY    72  65  80 S14       30.26S
CAPE HATTERAS  PTCLDY    72  62  71 S10       30.27S
TARBORO*       PTSUNNY   70  68  92 S3        30.24R
GOLDSBORO      MOCLDY    72  70  94 CALM      30.21R
WASHINGTON     MOCLDY    70  67  89 S6        30.24S
GREENVILLE     MOCLDY    70  70 100 S7        30.24R
NEW BERN       CLOUDY    71  67  87 S3        30.26R
WILMINGTON     PTCLDY    73  70  90 SE5       30.23R
$$

VAZ048-271100-
ELSEWHERE

CITY           SKY/WX    TMP DP  RH WIND       PRES   REMARKS
HARRISBURG PA  MOCLDY    72  65  78 SE5       30.11R
BALTIMORE      MOCLDY    72  68  87 S3        30.13F
ANNAPOLIS      CLOUDY    71  67  87 SE6       30.15R
ANDREWS AFB    CLOUDY    72  70  93 S8        30.15S
PHILADELPHIA   CLOUDY    72  66  81 S8        30.17R
HENDERSON NC   MOCLDY    69  66  90 S5        30.21R
GREENSBORO     MOCLDY    65  64  97 S7        30.20R
ROCKY MOUNT    MOCLDY    71  69  93 S5        30.22S
$$

VAZ100-271100-
MARINE

STATION/POSITION TIME  TEMP    WIND        PRES    WAVE   SWELL
                       AIR SEA DIR/SP/G            HT/PER HT/PER
                 (UTC) (F)     (DEG/KT/KT) (MB)    (FT/S) (FT/S)
BRANDYWINE LGT   0900   68 65  210/ 14/ 14 1022.0F
CAPE MAY NJ      0900   64 70  150/  7/  9 1021.8F
LEWES DE         0900   70 63  210/  7/ 11 1021.9F
15NM E FENWICK I 0950   64 61              1022.9R   4/ 5
OCEAN-CITY-INLET 0900   61 58  210/ 11/ 12 1022.6F
WACHAPREAGUE VA  0900   70 73  210/  9/ 11 1023.0F
THOMAS POINT MD  1000   70 68  170/ 13/ 13 1021.7R
GOOSES REEF MD   1000   71 68  200/ 10/ 12 1022.4R   1/ 2
COVE POINT MD    0900   72     210/ 10/ 12 1022.0S
SOLOMONS ISLAND  0900      70                N/A
BISHOPS HEAD MD  0900   72 73  180/ 11/ 14 1021.6F
PINEY POINT MD   0900          210/ 10/ 12   N/A
CAMBRIDGE MD     0900   71 71  180/  4/  9 1021.5R
LEWISETTA VA     0900   73 73              1021.2F
RAPPAHANNOCK LGT 0900          170/ 14/ 16 1023.1F
STINGRAY PT      1000   71 70  190/ 10/ 12 1022.1R   1/ 2
YORK RVR RNG VA  0900   72     200/ 14/ 16 1021.8F
YORKTOWN VA      0900   72 71  200/  8/ 14 1021.9F
JAMESTOWN VA     1000   71 75  200/ 10/ 14 1021.4R
DOMINION TERM VA 0900   72     190/ 13/ 16 1022.8F
KIPTOPEKE VA     0900      74  180/ 10/ 11   N/A
CHES BAY BRIDGE  0900   72 67  180/ 14/ 17 1022.3F
CAPE HENRY VA    0900   71     180/  8/ 13 1021.8F
CHESAPEAKE LGHT  0900   67     180/ 20/ 20 1023.7F
WILLOUBY STN VA  0900   72     190/ 16/ 18 1023.4F
CAPE HENRY BUOY  0928      62                N/A     2/ 5
1ST LANDING BUOY 1000      68              1022.8R
CAPE CHARLES BUO 0926      65                N/A     2/ 6   2/13
OFFSHORE WE BUOY 0911      65                N/A     3/ 6   2/12
64NM E OF VA BCH 0950   65 62  180/  8/ 10 1024.6R   3/ 5   3/ 5
DUCK PIER NC     0900   72 56  190/  9/ 14 1023.3S
44100 DUCK FRF   0924      63                N/A     3/ 5
44056 DUCK FRF   0911      61                N/A     2/ 5
OREGON INLET NC  0900   73 75  190/ 14/ 16 1024.6R
HATTERAS NC      0900   73 75  180/  5/ 10 1024.4R
DIAMOND SHLS NC  0950   74 78  210/ 10/ 12 1025.1R   3/ 4   2/ 5
CAPE LOOKOUT NC  1000   74     190/  5/  6 1024.5R
$$



USA.gov is the U.S. government's official web portal to all federal, state and local government web resources and services.